Location: Mahannah Oil Field
(37.4664°N, 96.6003°W)
Time: 02:09:04
(UTC+00:00)

deb Explorer IX - Pass Details

Date: 24 January 2021
Orbit: 537 x 1102 km, 38.8° (Epoch: 25 February)

Event Time Altitude Azimuth Distance (km) Brightness Sun altitude
Rises 23:02:13 0° 230° (SW) 3,837 ? 6.3°
Reaches altitude 10° 23:05:10 10° 225° (SW) 2,831 ? 5.7°
Maximum altitude 23:11:41 46° 154° (SSE) 1,246 ? 4.6°
Drops below altitude 10° 23:17:24 10° 82° (E) 2,490 ? 3.6°
Sets 23:19:51 0° 76° (ENE) 3,337 ? 3.2°
